User: anonymous   Login
Location: Lone Wolf Observatory
(41.0360°N, 89.2260°W)
Time: 18:07:33
(UTC-05:00)
Language:

Cosmos 1378 Rocket - Orbit

View from above orbital plane
View from above orbital plane
View from above satellite
View from above satellite

Ground track
Ground track

The orbit data is extracted from the following two-line orbital elements,

1 13272U 82059B   14296.68323887  .00000665  00000-0  76511-4 0  8930
2 13272 082.5097 328.0494 0020143 074.7881 285.5559 14.84101052748366
Epoch (UTC): 23 October 2014 16:23:51
Eccentricity: 0.0020143
inclination: 82.5097°
perigee height: 602 km
apogee height: 630 km
right ascension of ascending node: 328.0494°
argument of perigee: 74.7881°
revolutions per day: 14.84101052
mean anomaly at epoch: 285.5559°
orbit number at epoch: 74836

The dashed part of the orbit path shows where the satellite is in the earth's shadow,  

DLR